Location: Newark
(54.2500°N, 9.1833°E)
Time: 02:46:32
(UTC+00:00)

Vanguard 2 Rocket - Pass Details

Date: 14 December 2019
Orbit: 554 x 3326 km, 32.9° (Epoch: 23 January)

Event Time Altitude Azimuth Distance (km) Brightness Sun altitude
Rises 16:13:46 0° 225° (SW) 7,038 13.0 -9.9°
Reaches altitude 10° 16:20:16 10° 214° (SSW) 5,672 11.9 -10.7°
Maximum altitude 16:31:15 23° 171° (S) 3,845 10.2 -12.2°
Drops below altitude 10° 16:39:12 10° 126° (SE) 3,979 9.8 -13.3°
Enters shadow 16:42:06 - 113° (ESE) 4,444 10.0 -13.7°
